| time (UTC) | temp F | wind direction | speed knots | gust knots | rain 1hr in | rain 24hr in | rain mn in | humidity % | barometer mb |
| 20260503021521 | 44 | 5 | 0.0 | 0.9 | 0.00 | 0.00 | 0.00 | 80 | 1011.8 |
| 20260503020019 | 45 | 5 | 0.0 | 0.0 | 0.00 | 0.00 | 0.00 | 80 | 1011.9 |
| 20260503014516 | 46 | 5 | 0.0 | 0.0 | 0.00 | 0.00 | 0.00 | 79 | 1012.0 |
| 20260503013027 | 46 | 5 | 0.0 | 0.9 | 0.00 | 0.00 | 0.00 | 78 | 1012.0 |
| 20260503011513 | 46 | 5 | 0.0 | 0.9 | 0.00 | 0.00 | 0.00 | 79 | 1012.1 |
| 20260503010013 | 46 | 5 | 0.0 | 0.0 | 0.00 | 0.00 | 0.00 | 78 | 1012.2 |
| 20260503004508 | 47 | 5 | 0.0 | 0.0 | 0.00 | 0.00 | 0.00 | 76 | 1012.2 |
| 20260503003008 | 48 | 5 | 0.0 | 0.0 | 0.00 | 0.00 | 0.00 | 74 | 1012.3 |
| 20260503001504 | 48 | 5 | 0.0 | 0.0 | 0.00 | 0.00 | 0.00 | 73 | 1012.3 |
| 20260503000001 | 49 | 5 | 0.0 | 0.9 | 0.00 | 0.00 | 0.00 | 72 | 1012.4 |
| 20260502234618 | 49 | 5 | 0.0 | 0.9 | 0.00 | 0.00 | 0.00 | 72 | 1012.5 |
| 20260502233059 | 49 | 5 | 0.0 | 0.9 | 0.00 | 0.00 | 0.00 | 72 | 1012.6 |
| 20260502231554 | 50 | 5 | 0.0 | 0.0 | 0.00 | 0.00 | 0.00 | 71 | 1012.7 |
| 20260502230057 | 51 | 5 | 0.0 | 0.0 | 0.00 | 0.00 | 0.00 | 69 | 1012.8 |
| 20260502224548 | 51 | 5 | 0.0 | 0.0 | 0.00 | 0.00 | 0.00 | 68 | 1012.9 |
| 20260502223058 | 52 | 5 | 0.0 | 0.0 | 0.00 | 0.00 | 0.00 | 68 | 1012.9 |
| 20260502221544 | 52 | 5 | 0.0 | 0.9 | 0.00 | 0.00 | 0.00 | 66 | 1013.0 |
| 20260502220043 | 52 | 5 | 0.0 | 0.9 | 0.00 | 0.00 | 0.00 | 67 | 1013.1 |
| 20260502214542 | 53 | 5 | 0.0 | 0.9 | 0.00 | 0.00 | 0.00 | 66 | 1012.9 |
| 20260502213046 | 53 | 5 | 0.0 | 1.7 | 0.00 | 0.00 | 0.00 | 65 | 1013.0 |
| 20260502211541 | 54 | 5 | 0.9 | 2.6 | 0.00 | 0.00 | 0.00 | 65 | 1012.9 |
| 20260502210041 | 55 | 5 | 0.9 | 2.6 | 0.00 | 0.00 | 0.00 | 63 | 1012.9 |
| 20260502204540 | 56 | 82 | 0.0 | 0.9 | 0.00 | 0.00 | 0.00 | 60 | 1013.0 |
| 20260502203046 | 57 | 82 | 0.0 | 0.9 | 0.00 | 0.00 | 0.00 | 59 | 1013.0 |
| 20260502201541 | 57 | 82 | 0.0 | 2.6 | 0.00 | 0.00 | 0.00 | 57 | 1013.0 |
| 20260502200039 | 59 | 82 | 0.0 | 0.9 | 0.00 | 0.00 | 0.00 | 56 | 1013.0 |
| 20260502194537 | 60 | 82 | 1.7 | 2.6 | 0.00 | 0.00 | 0.00 | 53 | 1013.0 |
| 20260502193053 | 61 | 82 | 0.0 | 1.7 | 0.00 | 0.00 | 0.00 | 52 | 1013.0 |
| 20260502191539 | 62 | 82 | 0.0 | 1.7 | 0.00 | 0.00 | 0.00 | 50 | 1012.9 |
| 20260502190043 | 63 | 82 | 1.7 | 3.5 | 0.00 | 0.00 | 0.00 | 46 | 1012.7 |
| 20260502184545 | 65 | 123 | 0.0 | 1.7 | 0.00 | 0.00 | 0.00 | 44 | 1012.6 |
| 20260502183036 | 66 | 123 | 0.0 | 1.7 | 0.00 | 0.00 | 0.00 | 41 | 1012.4 |
| 20260502181537 | 67 | 123 | 0.9 | 1.7 | 0.00 | 0.00 | 0.00 | 39 | 1012.2 |
| 20260502163029 | 75 | 155 | 1.7 | 3.5 | 0.00 | 0.00 | 0.00 | 31 | 1012.4 |
| 20260502161531 | 75 | 165 | 1.7 | 7.0 | 0.00 | 0.00 | 0.00 | 31 | 1012.5 |
| 20260502151522 | 76 | 109 | 1.7 | 8.7 | 0.00 | 0.00 | 0.00 | 29 | 1013.1 |
| 20260502123100 | 75 | 136 | 4.3 | 8.7 | 0.00 | 0.00 | 0.00 | 34 | 1014.7 |
| 20260502121558 | 75 | 157 | 3.5 | 8.7 | 0.00 | 0.00 | 0.00 | 30 | 1015.0 |
| 20260502114553 | 75 | 163 | 1.7 | 9.6 | 0.00 | 0.00 | 0.00 | 32 | 1015.3 |
| 20260502113101 | 74 | 138 | 4.3 | 12.2 | 0.00 | 0.00 | 0.00 | 32 | 1015.5 |
| 20260502111547 | 73 | 35 | 3.5 | 7.0 | 0.00 | 0.00 | 0.00 | 34 | 1015.6 |
| 20260502110047 | 73 | 182 | 0.9 | 6.1 | 0.00 | 0.00 | 0.00 | 39 | 1015.9 |
| 20260502104543 | 72 | 183 | 1.7 | 7.0 | 0.00 | 0.00 | 0.00 | 37 | 1016.1 |
| 20260502103040 | 72 | 179 | 3.5 | 7.8 | 0.00 | 0.00 | 0.00 | 39 | 1016.3 |
| 20260502101543 | 72 | 231 | 0.0 | 5.2 | 0.00 | 0.00 | 0.00 | 36 | 1016.5 |
| 20260502091527 | 69 | 10 | 2.6 | 8.7 | 0.00 | 0.00 | 0.00 | 38 | 1017.2 |
| 20260502070114 | 59 | 332 | 0.9 | 2.6 | 0.00 | 0.00 | 0.00 | 53 | 1018.2 |
| 20260502064551 | 57 | 275 | 0.0 | 1.7 | 0.00 | 0.00 | 0.00 | 58 | 1018.3 |
| 20260502063046 | 55 | 275 | 0.0 | 2.6 | 0.00 | 0.00 | 0.00 | 61 | 1018.4 |
| 20260502061543 | 52 | 309 | 0.0 | 1.7 | 0.00 | 0.00 | 0.00 | 68 | 1018.6 |
| 20260502060043 | 51 | 306 | 0.9 | 3.5 | 0.00 | 0.00 | 0.00 | 68 | 1018.6 |
| 20260502054544 | 48 | 319 | 1.7 | 3.5 | 0.00 | 0.00 | 0.00 | 72 | 1018.7 |
| 20260502053033 | 46 | 326 | 0.0 | 1.7 | 0.00 | 0.00 | 0.00 | 77 | 1018.6 |
| 20260502051534 | 44 | 326 | 0.9 | 3.5 | 0.00 | 0.00 | 0.00 | 79 | 1018.7 |
| 20260502050037 | 43 | 314 | 0.0 | 0.9 | 0.00 | 0.00 | 0.00 | 80 | 1018.6 |
| 20260502044530 | 43 | 314 | 0.0 | 0.9 | 0.00 | 0.00 | 0.00 | 80 | 1018.6 |
| 20260502043030 | 43 | 314 | 0.0 | 1.7 | 0.00 | 0.00 | 0.00 | 79 | 1018.6 |
| 20260502041552 | 43 | 323 | 0.0 | 1.7 | 0.00 | 0.00 | 0.00 | 79 | 1018.5 |
| 20260502040046 | 43 | 331 | 0.0 | 1.7 | 0.00 | 0.00 | 0.00 | 79 | 1018.3 |
| 20260502034528 | 43 | 331 | 0.9 | 2.6 | 0.00 | 0.00 | 0.00 | 79 | 1018.4 |
| 20260502033032 | 43 | 331 | 0.9 | 3.5 | 0.00 | 0.00 | 0.00 | 80 | 1018.3 |
| 20260502031527 | 43 | 323 | 0.0 | 2.6 | 0.00 | 0.00 | 0.00 | 79 | 1018.3 |
| 20260502030030 | 43 | 313 | 0.9 | 2.6 | 0.00 | 0.00 | 0.00 | 80 | 1018.4 |
| 20260502024524 | 42 | 318 | 0.9 | 4.3 | 0.00 | 0.00 | 0.00 | 82 | 1018.5 |
| 20260502023031 | 42 | 327 | 1.7 | 2.6 | 0.00 | 0.00 | 0.00 | 83 | 1018.5 |